Flag for Sweden Weather past 2 weeks in Stockholm, Sweden

Now
64 °F

Mild.


Feels Like: 64 °F
Forecast: 55 / 69 °F
Wind: 9 mph from West

Location: Stockholm Bromma Airport

Current Time: Aug 29, 2015 at 9:01:47 PM

Latest Report: Aug 29, 2015 at 8:20 PM


Visibility: N/A

Pressure: 30.04 "Hg

Humidity: 52%

Dew point: 46 °F

Location of StockholmLocation

Historic Weather in Stockholm — Graph

°F

Stockholm temperature yesterday

Maximum temperature yesterday: 68 °F (at 12:50 PM)
Minimum temperature yesterday: 59 °F (at 11:50 PM)
Average temperature yesterday: 64 °F

Past Weeks' High & Low Weather Summary

 TemperatureHumidityPressure
High75 °F (Aug 22, 4:50 PM)100% (Aug 15, 1:50 AM)30.45 "Hg (Aug 15, 1:50 AM)
Low46 °F (Aug 20, 3:50 AM)33% (Aug 22, 4:20 PM)29.62 "Hg (Aug 27, 7:20 PM)
Average63 °F70%30.12 "Hg
* Reported Aug 14 7:20 PM — Aug 29 7:50 PM, Stockholm, Weather by CustomWeather, © 2015

Note: Actual official high and low records may vary slightly from our data, if they occured in-between our weather recording intervals... More about our weather records

Advertising

Stockholm weather history for previous 24 hours

 ConditionsComfort  
Time TempWeatherWind HumidityBarometerVisibility
7:50 PM
Sat, Aug 29
64 °FPassing clouds.14 mph52%30.04 "HgN/A
7:20 PM66 °FMild.10 mph49%30.01 "HgN/A
6:50 PM66 °FMild.13 mph46%30.01 "HgN/A
6:20 PM68 °FMild.14 mph43%30.01 "HgN/A
5:50 PM70 °FPassing clouds.17 mph40%30.01 "HgN/A
5:20 PM68 °FMild.14 mph43%30.01 "HgN/A
4:50 PM70 °FSunny.18 mph43%30.01 "Hg10 mi
4:20 PM70 °FSunny.18 mph43%30.01 "Hg10 mi
3:50 PM70 °FSunny.20 mph43%30.01 "Hg10 mi
3:20 PM70 °FSunny.17 mph43%29.98 "Hg10 mi
2:50 PM70 °FScattered clouds.17 mph43%29.98 "HgN/A
2:20 PM68 °FPassing clouds.18 mph46%29.98 "HgN/A
1:50 PM68 °FPassing clouds.18 mph46%29.98 "HgN/A
1:20 PM68 °FScattered clouds.17 mph49%29.98 "HgN/A
12:50 PM68 °FScattered clouds.17 mph49%29.98 "HgN/A
11:50 AM66 °FScattered clouds.15 mph56%29.98 "HgN/A
11:20 AM64 °FScattered clouds.18 mph60%29.95 "HgN/A
10:50 AM63 °FScattered clouds.16 mph64%29.95 "HgN/A
9:50 AM63 °FScattered clouds.15 mph68%29.95 "HgN/A
9:20 AM61 °FScattered clouds.15 mph72%29.92 "HgN/A
8:50 AM61 °FScattered clouds.15 mph72%29.92 "HgN/A
7:50 AM59 °FPassing clouds.13 mph77%29.89 "HgN/A
7:20 AM57 °FPassing clouds.12 mph82%29.89 "HgN/A
6:50 AM57 °FPassing clouds.10 mph82%29.89 "HgN/A
6:20 AM55 °FCool.10 mph88%29.89 "HgN/A
5:50 AM55 °FCool.10 mph88%29.89 "HgN/A
5:20 AM55 °FPassing clouds.12 mph88%29.86 "HgN/A
4:50 AM55 °FPassing clouds.10 mph88%29.86 "HgN/A
4:20 AM55 °FCool.9 mph88%29.86 "HgN/A
3:50 AM57 °FPassing clouds.8 mph82%29.86 "HgN/A
3:20 AM57 °FPassing clouds.9 mph82%29.86 "HgN/A
2:50 AM57 °FCool.8 mph82%29.86 "HgN/A
2:20 AM57 °FCool.9 mph82%29.86 "HgN/A
1:50 AM59 °FCool.9 mph77%29.83 "HgN/A
1:20 AM59 °FCool.8 mph72%29.83 "HgN/A
12:50 AM59 °FCool.10 mph77%29.83 "HgN/A
12:20 AM59 °FCool.12 mph77%29.83 "HgN/A
11:50 PM
Fri, Aug 28
59 °FCool.13 mph72%29.83 "HgN/A
11:20 PM61 °FCool.13 mph68%29.83 "HgN/A
10:50 PM61 °FCool.12 mph68%29.80 "HgN/A
10:20 PM61 °FCool.10 mph68%29.80 "HgN/A
9:50 PM63 °FClear.12 mph59%29.80 "Hg10 mi
9:20 PM63 °FClear.10 mph59%29.80 "Hg10 mi
Weather by CustomWeather, © 2015

See weather overviewHow to use our weather pages